[[[{"header":{"parameterUnit":"kt","parameterCategory":2,"dx":1,"dy":1,"la1":30.253999710083008,"la2":30.299108505249023,"lo1":-89.0895004272461,"lo2":-89.04439544677734,"nx":28,"ny":28,"refTime":"2022-10-28T21:00:00:Z","depth":0,"parameterNumber":1,"parameterNumberName":"U-component_of_WINDS"},"data":[4.4356,4.4464,4.453,4.4685,4.477,4.4887,4.495,4.5039,4.5126,4.5274,4.5371,4.5448,4.5562,4.5694,4.5802,4.5835,4.5876,4.5867,4.5906,4.5886,4.5888,4.589,4.5868,4.5875,4.5875,4.5917,4.5917,4.5918,4.4338,4.4423,4.4524,4.4666,4.4753,4.4802,4.4919,4.4989,4.5092,4.5201,4.5299,4.5435,4.555,4.5669,4.5792,4.5845,4.5875,4.5873,4.587,4.5887,4.5869,4.5845,4.5847,4.5847,4.5847,4.5847,4.5847,4.5847,4.4323,4.4385,4.4509,4.462,4.4709,4.4804,4.4875,4.4969,4.5068,4.5204,4.5263,4.5381,4.5502,4.5682,4.5758,4.5853,4.5866,4.5885,4.589,4.5893,4.5888,4.5819,4.5877,4.5877,4.5877,4.5878,4.5878,0,4.4332,4.4383,4.4484,4.4604,4.4688,4.4788,4.4891,4.4937,4.5067,4.5143,4.526,4.5339,4.5494,4.5611,4.574,4.5817,4.5875,4.5888,4.5902,4.5874,4.5833,4.5856,4.5823,4.5885,4.5886,4.5886,4.5886,4.5886,4.4322,4.4386,4.4548,4.461,4.4682,4.478,4.4853,4.4963,4.5034,4.5177,4.5227,4.5346,4.5447,4.5623,4.5731,4.5847,4.5876,4.5893,4.5894,4.5866,4.5877,4.5872,4.588,4.589,4.5889,4.5889,4.5889,0,4.431,4.4417,4.4538,4.4692,4.4733,4.4795,4.4927,4.4994,4.5077,4.5181,4.5211,4.5342,4.5455,4.5562,4.5712,4.5764,4.587,4.5895,4.5829,4.584,4.5866,4.5862,4.5931,4.5946,4.594,4.594,4.594,0,4.4343,4.4423,4.4578,4.4643,4.4736,4.4845,4.4934,4.5015,4.512,4.5203,4.5286,4.5361,4.5486,4.5578,4.5655,4.5761,4.5789,4.5835,4.5855,4.5828,4.5822,4.5866,4.5866,4.5896,4.5895,4.5895,4.5895,0,4.4312,4.4489,4.4595,4.4652,4.4824,4.4871,4.4945,4.5063,4.5133,4.524,4.5287,4.5403,4.5467,4.5557,4.5655,4.5651,4.5786,4.5802,4.5833,4.5831,4.5856,4.5853,4.5889,4.5894,4.5894,4.5894,4.5894,0,4.4355,4.4461,4.4598,4.4743,4.4785,4.4854,4.4977,4.5061,4.518,4.5233,4.5318,4.5386,4.5486,4.5494,4.5635,4.5603,4.5661,4.5715,4.5719,4.5734,4.574,4.5745,4.5768,4.5775,4.5749,4.5748,4.5747,0,4.4292,4.4458,4.4552,4.4679,4.477,4.4858,4.4937,4.5039,4.5117,4.5206,4.5293,4.5393,4.5422,4.5468,4.5523,4.5616,4.5657,4.5614,4.5741,4.5745,4.5707,4.573,4.5706,4.5751,4.5733,4.5734,4.5735,0,4.4256,4.4463,4.4479,4.4549,4.4702,4.4778,4.4868,4.4992,4.5046,4.5152,4.5231,4.5374,4.5402,4.5477,4.5544,4.5596,4.5633,4.5618,4.5623,4.5617,4.5734,4.5712,4.5719,4.5666,4.5668,4.567,4.5724,0,4.4297,4.4393,4.4441,4.4591,4.4667,4.4752,4.4865,4.493,4.4987,4.5067,4.5185,4.5296,4.542,4.5456,4.5512,4.5596,4.5599,4.5627,4.5642,4.5656,4.5676,4.5685,4.5602,4.5603,4.5604,4.5605,0,0,4.421,4.435,4.4449,4.454,4.461,4.4699,4.478,4.4858,4.5014,4.5061,4.507,4.5287,4.5376,4.5507,4.552,4.557,4.5596,4.5586,4.5648,4.5652,4.5657,4.5677,4.5684,4.5606,4.5607,4.5607,4.5607,0,4.4248,4.4337,4.4416,4.4502,4.4632,4.4713,4.4731,4.4876,4.4931,4.5046,4.5117,4.52,4.5369,4.5456,4.5521,4.5574,4.5622,4.5603,4.5594,4.5653,4.5656,4.566,4.5679,4.5685,4.5609,4.5609,4.5609,0,4.4233,4.434,4.4389,4.4552,4.4638,4.4729,4.4773,4.4866,4.4935,4.5026,4.5139,4.5215,4.5339,4.5447,4.5499,4.551,4.5639,4.5618,4.5615,4.5623,4.5686,4.5689,4.5692,4.565,4.565,4.565,0,0,4.425,4.434,4.4488,4.4568,4.4618,4.4738,4.4797,4.486,4.4969,4.5012,4.5111,4.5215,4.5315,4.5378,4.5478,4.558,4.5615,4.5618,4.5616,4.5614,4.562,4.5683,4.5686,4.5648,4.5648,4.5648,0,0,4.4259,4.4433,4.4471,4.4579,4.468,4.4831,4.4876,4.4926,4.5027,4.5029,4.5139,4.5171,4.5275,4.5346,4.5317,4.5485,4.5498,4.5507,4.5434,4.5433,4.5431,4.5412,4.5377,0,0,0,0,0,4.4355,4.4412,4.4445,4.4479,4.4684,4.4813,4.484,4.4932,4.4939,4.4973,4.5064,4.5112,4.5354,4.5331,4.5364,4.5394,4.5633,4.5636,4.5638,4.5569,4.5567,4.5565,0,0,0,0,0,0,4.437,4.4412,4.4444,4.4594,4.4642,4.4811,4.4845,4.4872,4.4938,4.4946,4.5093,4.5116,4.5197,4.532,4.5348,4.5376,4.5368,4.5634,4.5636,4.5638,4.5568,4.5567,4.5565,0,0,0,0,0,4.4382,4.4416,4.472,4.4594,4.4635,4.4772,4.4843,4.4866,4.4919,4.5059,4.5084,4.4982,4.5195,4.5225,4.5338,4.5361,4.5349,4.5359,4.5635,4.5637,4.5639,4.5568,0,0,0,0,0,0,4.4391,4.4437,4.473,4.4746,4.458,4.4764,4.4796,4.4861,4.503,4.5056,4.4954,4.4958,4.5195,4.5218,4.5241,4.535,4.5333,4.5344,4.535,4.5637,4.5638,4.564,0,0,0,0,0,0,4.442,4.445,4.4739,4.4715,4.4729,4.4756,4.4785,4.4893,4.5031,4.4916,4.4925,4.4954,4.516,4.5213,4.5231,4.5397,4.5322,4.5332,4.5338,4.5343,4.5638,4.5639,0,0,0,0,0,0,4.4434,4.4461,4.4711,4.4722,4.4734,4.492,4.4854,4.5059,4.501,4.4907,4.5009,4.5008,4.5154,4.5175,4.5224,4.5381,4.5393,4.5322,4.5329,4.5334,4.5337,0,0,0,0,0,0,0,4.4446,4.4249,4.4636,4.4728,4.4739,4.4893,4.4898,4.4902,4.501,4.501,4.5009,4.5008,4.5265,4.5276,4.5287,4.5369,0,0,4.5321,4.5326,0,0,0,0,0,0,0,0,4.424,4.4247,4.4636,4.464,4.4643,4.4894,4.4897,4.4901,4.501,4.501,4.5009,4.5009,4.5268,4.5277,4.5286,0,0,0,0,0,0,0,0,0,0,0,0,0,0,0,4.4637,4.464,0,4.4894,4.4897,4.49,4.501,4.501,4.5009,4.5009,4.5271,4.5278,4.5285,0,0,0,0,0,0,0,0,0,0,0,0,0,0,0,0,0,0,0,0,0,0,0,0,0,0,0,0,0,0,0,0,0,0,0,0,0,0,0,0,0,0,0,0,0,0,0,0,0,0,0,0,0,0,0,0,0,0,0,0,0,0,0,0,0,0,0,0,0]}],[{"header":{"parameterUnit":"kt","parameterCategory":2,"dx":1,"dy":1,"la1":30.253999710083008,"la2":30.299108505249023,"lo1":-89.0895004272461,"lo2":-89.04439544677734,"nx":28,"ny":28,"refTime":"2022-10-28T21:00:00:Z","depth":0,"parameterNumber":2,"parameterNumberName":"V-component_of_WINDS"},"data":[3.5102,3.5139,3.5183,3.5244,3.5294,3.5343,3.5375,3.5421,3.5469,3.5531,3.5576,3.5625,3.569,3.5753,3.5803,3.5824,3.584,3.5817,3.5845,3.5905,3.5916,3.5927,3.5921,3.5821,3.5821,3.5776,3.5775,3.5775,3.5133,3.5183,3.523,3.5306,3.5346,3.5393,3.5457,3.5487,3.553,3.559,3.5638,3.5697,3.575,3.5827,3.5885,3.5901,3.5927,3.5913,3.5911,3.592,3.5987,3.5979,3.5891,3.5891,3.5891,3.5891,3.5891,3.5891,3.5201,3.5221,3.5295,3.5347,3.5398,3.5448,3.5476,3.5537,3.5584,3.5653,3.57,3.575,3.5819,3.5915,3.5959,3.5998,3.6022,3.6022,3.6021,3.6019,3.6009,3.6059,3.6012,3.6012,3.6012,3.6013,3.6013,0,3.5264,3.5301,3.5351,3.5413,3.5454,3.5508,3.5565,3.5584,3.568,3.5715,3.5769,3.5809,3.5886,3.5941,3.6009,3.6056,3.611,3.6122,3.6122,3.6097,3.6064,3.6077,3.6179,3.6123,3.6125,3.6125,3.6126,3.6126,3.5332,3.5354,3.5455,3.5484,3.5528,3.5573,3.561,3.5695,3.573,3.5813,3.5828,3.5886,3.5937,3.6017,3.6091,3.6149,3.6176,3.6148,3.6185,3.6159,3.6171,3.6167,3.6168,3.6139,3.6137,3.6136,3.6135,0,3.5365,3.5444,3.5493,3.5593,3.5619,3.5636,3.5722,3.5747,3.5807,3.585,3.5865,3.5958,3.6011,3.6091,3.6169,3.6208,3.6232,3.6259,3.6206,3.6215,3.6195,3.6194,3.6127,3.6121,3.6229,3.6228,3.6227,0,3.5454,3.548,3.5594,3.5619,3.5649,3.5736,3.5763,3.5818,3.5883,3.5918,3.5994,3.6025,3.6124,3.6166,3.6225,3.626,3.6276,3.6307,3.6322,3.6299,3.6294,3.6318,3.6321,3.6361,3.6361,3.6361,3.6362,0,3.5495,3.5591,3.5631,3.5666,3.5778,3.5794,3.5842,3.5917,3.5954,3.6014,3.6038,3.6103,3.6138,3.6185,3.626,3.6282,3.6307,3.6353,3.6339,3.6336,3.6339,3.6338,3.626,3.6362,3.6362,3.6362,3.6362,0,3.5579,3.564,3.5689,3.5783,3.5805,3.5833,3.5903,3.5946,3.602,3.606,3.6109,3.617,3.6211,3.6249,3.6305,3.6311,3.634,3.6376,3.6376,3.6383,3.6423,3.6364,3.6284,3.6277,3.639,3.639,3.639,0,3.5603,3.5676,3.5752,3.5797,3.5842,3.5924,3.5957,3.6022,3.6078,3.6124,3.6187,3.6239,3.6285,3.6312,3.633,3.6396,3.6389,3.6401,3.646,3.6461,3.6434,3.6362,3.6329,3.6293,3.6395,3.6394,3.6394,0,3.5632,3.5772,3.5775,3.5817,3.592,3.596,3.5998,3.607,3.6095,3.6163,3.6195,3.6273,3.6309,3.6356,3.6414,3.6428,3.6396,3.6466,3.647,3.6447,3.6406,3.6372,3.6366,3.6432,3.6431,3.6431,3.6397,0,3.5733,3.5783,3.5797,3.5892,3.5936,3.5972,3.6061,3.6095,3.6146,3.6207,3.6258,3.6337,3.6411,3.6429,3.6481,3.6489,3.65,3.654,3.6582,3.6536,3.6526,3.6523,3.6588,3.659,3.6591,3.6593,0,0,3.5735,3.5809,3.5895,3.5937,3.5979,3.6067,3.6096,3.6149,3.6252,3.6278,3.6303,3.6424,3.6487,3.6541,3.6534,3.6566,3.6574,3.6589,3.6558,3.6554,3.655,3.6539,3.6534,3.6595,3.6596,3.6596,3.6597,0,3.5791,3.5856,3.5886,3.5943,3.6032,3.6096,3.6103,3.6207,3.6248,3.6302,3.6374,3.6417,3.6514,3.657,3.6611,3.6585,3.6636,3.6601,3.6555,3.657,3.6564,3.6559,3.6546,3.654,3.6601,3.66,3.66,0,3.5833,3.5911,3.5936,3.604,3.61,3.6147,3.6213,3.6261,3.6296,3.6392,3.6445,3.6501,3.6586,3.6627,3.665,3.6673,3.6686,3.6701,3.6694,3.6698,3.6718,3.671,3.6703,3.6792,3.6792,3.6792,0,0,3.5869,3.5918,3.603,3.606,3.6092,3.6189,3.6224,3.628,3.6355,3.6385,3.6459,3.6529,3.6586,3.6622,3.6681,3.6715,3.6738,3.6721,3.6712,3.6704,3.6704,3.6721,3.6713,3.6793,3.6793,3.6794,0,0,3.5887,3.6018,3.6057,3.6104,3.6172,3.6285,3.6299,3.635,3.6413,3.6419,3.6517,3.654,3.6581,3.6635,3.6638,3.6697,3.6738,3.6739,3.6661,3.6651,3.6642,3.6628,3.6718,0,0,0,0,0,3.5992,3.6002,3.6036,3.6057,3.6192,3.6265,3.6283,3.6364,3.639,3.6398,3.6468,3.6524,3.6656,3.6661,3.6681,3.6676,3.6807,3.6805,3.6803,3.671,3.6699,3.6689,0,0,0,0,0,0,3.6001,3.6027,3.6036,3.6147,3.6179,3.6266,3.6327,3.6349,3.6391,3.64,3.6508,3.6527,3.6597,3.6657,3.6673,3.6667,3.6713,3.6806,3.6804,3.6802,3.6706,3.6697,3.6689,0,0,0,0,0,3.6009,3.603,3.6225,3.6148,3.6175,3.6285,3.6327,3.6346,3.638,3.649,3.6511,3.6437,3.6595,3.6615,3.6667,3.6657,3.6702,3.6708,3.6805,3.6803,3.6802,3.6702,0,0,0,0,0,0,3.6015,3.6048,3.6232,3.6243,3.6152,3.6281,3.6305,3.6343,3.6469,3.6489,3.6424,3.643,3.6594,3.6609,3.6624,3.6649,3.6693,3.6699,3.6703,3.6804,3.6802,3.6801,0,0,0,0,0,0,3.6037,3.6057,3.6238,3.6238,3.625,3.6278,3.6299,3.6356,3.6469,3.6396,3.6405,3.6425,3.6572,3.6605,3.6617,3.6703,3.6686,3.6692,3.6696,3.6698,3.6803,3.6802,0,0,0,0,0,0,3.6047,3.6064,3.6235,3.6244,3.6255,3.6387,3.633,3.6464,3.6469,3.6389,3.6471,3.6473,3.6566,3.658,3.6611,3.6693,3.67,3.6686,3.669,3.6693,3.6695,0,0,0,0,0,0,0,3.6055,3.5923,3.6166,3.625,3.6259,3.6347,3.635,3.6353,3.6469,3.647,3.6471,3.6472,3.6654,3.666,3.6666,3.6684,0,0,3.6686,3.6689,0,0,0,0,0,0,0,0,3.5918,3.5921,3.6166,3.6168,3.6171,3.6347,3.635,3.6352,3.6469,3.647,3.6471,3.6472,3.6655,3.666,3.6666,0,0,0,0,0,0,0,0,0,0,0,0,0,0,0,3.6166,3.6168,0,3.6348,3.635,3.6352,3.6469,3.647,3.6471,3.6471,3.6657,3.6661,3.6665,0,0,0,0,0,0,0,0,0,0,0,0,0,0,0,0,0,0,0,0,0,0,0,0,0,0,0,0,0,0,0,0,0,0,0,0,0,0,0,0,0,0,0,0,0,0,0,0,0,0,0,0,0,0,0,0,0,0,0,0,0,0,0,0,0,0,0,0,0]}]]]